Weather in Torbeyevo

Russia / Kaluga Oblast     54°43′51″N   36°11′10″E
temp.,
°C
wind,
m/s
gust,
m/s
humid.,
%
clouds,
%
prec.,
mm/h
press.,
hPa
HPBL,
m
15 april, thu
thu1500:00+11ese2261100 0.0 101623
03:00+11se3662100 0.0 101699
06:00+11nne2259100 0.0 101425
09:00+12nne2461100 0.0 1015152
12:00+17e3447100 0.0 1014891
15:00+18e5744100 0.0 10141605
18:00+16ene4954100 0.0 1013286
21:00+13ese2569100 0.1 1014121
16 april, fri
fri1600:00+11e3781100 0.1 1015176
03:00+10ne368898 0.5 1015150
06:00+9e4108449 0.0 1016297
09:00+12e6976100 0.0 1018541
12:00+14e6764100 0.0 1018930
15:00+15e71066100 0.1 10181202
18:00+13e61279100 2.8 1018834
21:00+11e71290100 9.4 1019607
17 april, sat
sat1700:00+10e51090100 3.6 1020352
03:00+9ene5109593 3.9 1020446
06:00+8ene51092100 0.1 1021535
09:00+9ene61089100 0.1 1021583
12:00+13ene7107193 0.0 10201038
15:00+15ene81160100 0.1 10201551
18:00+13ene61263100 0.0 10201105
21:00+11ene7156544 0.0 1021671
18 april, sun
sun1800:00+8ne6137055 0.0 1021491
03:00+6ne6136965 0.0 1021459
06:00+5ne613720 0.0 1022454
09:00+8ene610635 0.0 1022707
12:00+11ene695745 0.0 10221159
15:00+12e685390 0.0 10231570
18:00+11ene4855100 0.0 1023531
21:00+9ne385889 0.0 1024235
19 april, mon
mon1900:00+5ne39765 0.0 1025219
03:00+4ne39805 0.0 1026184
06:00+3ne49855 0.0 1027227
09:00+7ene57715 0.0 1027605
12:00+11ene675699 0.0 10271580
15:00+9ene5662100 0.0 10271298
18:00+9e4759100 0.0 1027626
21:00+8e485594 0.0 1028292